Location: Cumbre Roja
(10.2766°N, 67.0675°W)
Time: 02:19:39
(UTC+00:00)

CZ-2D R/B - Pass Details

Date: 18 November 2025
Orbit: 404 x 412 km, 97.4° (Epoch: 08 December)

Event Time Altitude Azimuth Distance (km) Brightness Sun altitude
Rises 22:26:15 0° 170° (S) 2,340 6.7 -6.4°
Reaches altitude 10° 22:28:15 10° 171° (S) 1,476 5.7 -6.8°
Maximum altitude 22:31:24 81° 258° (WSW) 418 2.8 -7.6°
Drops below altitude 10° 22:34:32 10° 347° (NNW) 1,467 5.5 -8.3°
Sets 22:36:30 0° 348° (NNW) 2,324 6.5 -8.7°
